Location: Alafon
(8.4500°N, 4.2333°E)
Time: 01:43:32
(UTC+00:00)

Cosmos 2360 Rocket - Pass Details

Date: 05 July 2020
Orbit: 832 x 847 km, 71.0° (Epoch: 05 August)

Event Time Altitude Azimuth Distance (km) Brightness Sun altitude
Rises 18:37:15 0° 171° (S) 3,370 5.0 -8.0°
Reaches altitude 10° 18:40:05 10° 158° (SSE) 2,437 4.2 -8.6°
Maximum altitude 18:44:36 25° 104° (ESE) 1,611 3.1 -9.6°
Drops below altitude 10° 18:49:07 10° 50° (NE) 2,442 4.4 -10.6°
Sets 18:51:56 0° 37° (NE) 3,378 5.2 -11.3°
